This is the latest recevied weather packets stored in our database for station/object BRIVER. If no packets are shown the sender has not sent any weather packets the latest 1 day(s).
| Time | Temp. | Humidity | Pressure | Rain* | Wind** | Luminosity | Snow |
|---|---|---|---|---|---|---|---|
| 1777981771 | 8.33° C | 100% | 1011.1 hPa | 0 mm | 0.89 m/s, 26° | - | - |
| 1777981530 | 8.33° C | 100% | 1010.9 hPa | 0 mm | 1.34 m/s, 26° | - | - |
| 1777981230 | 7.78° C | 100% | 1011 hPa | 0 mm | 0.89 m/s, 26° | - | - |
| 1777980930 | 7.78° C | 100% | 1010.9 hPa | 0 mm | 1.34 m/s, 23° | - | - |
| 1777980691 | 7.78° C | 100% | 1011 hPa | 0 mm | 1.34 m/s, 0° | - | - |
| 1777980630 | 8.33° C | 100% | 1011 hPa | 0 mm | 0.89 m/s, 0° | - | - |
| 1777980330 | 8.33° C | 100% | 1011.1 hPa | 0 mm | 1.34 m/s, 342° | - | - |
| 1777980151 | 8.33° C | 100% | 1011 hPa | 0 mm | 1.34 m/s, 342° | - | - |
| 1777980030 | 8.33° C | 100% | 1011 hPa | 0 mm | 1.79 m/s, 342° | - | - |
| 1777979730 | 8.33° C | 100% | 1011.1 hPa | 0 mm | 1.79 m/s, 344° | - | - |
| 1777979611 | 8.33° C | 100% | 1010.9 hPa | 0 mm | 1.79 m/s, 355° | - | - |
| 1777979430 | 8.33° C | 100% | 1011 hPa | 0 mm | 1.34 m/s, 344° | - | - |
| 1777979130 | 8.33° C | 100% | 1011 hPa | 0 mm | 1.79 m/s, 325° | - | - |
| 1777979071 | 8.33° C | 100% | 1011 hPa | 0 mm | 1.79 m/s, 325° | - | - |
| 1777978830 | 8.33° C | 100% | 1011 hPa | 0 mm | 1.79 m/s, 320° | - | - |
| 1777978530 | 8.33° C | 100% | 1011 hPa | 0 mm | 1.79 m/s, 355° | - | - |
| 1777978230 | 8.33° C | 100% | 1010.9 hPa | 0 mm | 1.79 m/s, 355° | - | - |
| 1777977991 | 8.33° C | 100% | 1010.8 hPa | 0 mm | 1.34 m/s, 355° | - | - |
| 1777977930 | 8.33° C | 100% | 1010.8 hPa | 0 mm | 1.34 m/s, 355° | - | - |
| 1777977630 | 8.33° C | 100% | 1010.8 hPa | 0 mm | 0.89 m/s, 5° | - | - |
| 1777977451 | 8.33° C | 100% | 1010.8 hPa | 0 mm | 0.89 m/s, 22° | - | - |
| 1777977330 | 8.33° C | 100% | 1010.9 hPa | 0 mm | 0.89 m/s, 22° | - | - |
| 1777977030 | 8.33° C | 100% | 1010.8 hPa | 0 mm | 0.89 m/s, 22° | - | - |
| 1777976911 | 8.33° C | 100% | 1010.8 hPa | 0 mm | 0.45 m/s, 22° | - | - |
| 1777976730 | 8.33° C | 100% | 1010.8 hPa | 0 mm | 0.45 m/s, 22° | - | - |
* Rain latest hour (hover to see other rain measurements)
** Current wind speed in m/s (hover to see current wind gust speed)